UPC1301 UZTT-UACC

Flight info

Callsign UPC1301
Flight time 1h 28m
Altitude FL450
Route ODORI Z578 ARSUL Z632 GENDI M168 TIMKA P178 AMIGU Z586 GURPI
Aircraft C750/M-SBDE3FGHRWXY/S

Departure

Time 2026-04-21 17:04
Airport Tashkent International Airport (UZTT)

Arrival

Time 2026-04-21 18:32
Airport Nursultan Nazarbayev International Airport (UACC)
Time Latitude Longitude Altitude Speed Heading
2026-04-21 16:54 41.26149 69.27442 1377 ft 0 kts 83°
2026-04-21 17:00 41.26149 69.27449 1377 ft 3 kts 83°
2026-04-21 17:00 41.26150 69.27481 1377 ft 7 kts 100°
2026-04-21 17:00 41.26100 69.27564 1377 ft 12 kts 81°
2026-04-21 17:01 41.26116 69.27703 1377 ft 19 kts 81°
2026-04-21 17:01 41.26138 69.27904 1377 ft 25 kts 81°
2026-04-21 17:01 41.26162 69.28121 1377 ft 26 kts 82°
2026-04-21 17:01 41.26189 69.28365 1377 ft 24 kts 82°
2026-04-21 17:02 41.26187 69.28555 1377 ft 19 kts 92°
2026-04-21 17:02 41.26176 69.28686 1376 ft 11 kts 113°
2026-04-21 17:02 41.26103 69.28778 1377 ft 18 kts 140°
2026-04-21 17:02 41.26011 69.28893 1375 ft 19 kts 138°
2026-04-21 17:03 41.25929 69.28861 1375 ft 4 kts 265°
2026-04-21 17:03 41.25924 69.28824 1374 ft 0 kts 260°
2026-04-21 17:03 41.25910 69.28716 1374 ft 49 kts 260°
2026-04-21 17:03 41.25800 69.27744 1381 ft 149 kts 261°
2026-04-21 17:04 41.25641 69.26240 1708 ft 182 kts 262°
2026-04-21 17:04 41.25466 69.24460 2199 ft 206 kts 262°
2026-04-21 17:04 41.25273 69.22440 2665 ft 235 kts 261°
2026-04-21 17:04 41.25065 69.20221 3504 ft 248 kts 261°
2026-04-21 17:05 41.24851 69.17949 4556 ft 254 kts 262°
2026-04-21 17:05 41.24630 69.15582 5518 ft 258 kts 262°
2026-04-21 17:05 41.24417 69.13191 6267 ft 266 kts 265°
2026-04-21 17:05 41.24849 69.10780 6822 ft 278 kts 300°
2026-04-21 17:06 41.26171 69.08920 7723 ft 282 kts 323°
2026-04-21 17:06 41.28001 69.07928 8543 ft 290 kts 344°
2026-04-21 17:06 41.29962 69.07302 9453 ft 294 kts 346°
2026-04-21 17:06 41.31974 69.06601 10069 ft 305 kts 343°
2026-04-21 17:07 41.33341 69.06075 10520 ft 307 kts 342°
2026-04-21 17:07 41.36091 69.05033 11535 ft 311 kts 343°
2026-04-21 17:07 41.38186 69.04276 12258 ft 315 kts 343°
2026-04-21 17:07 41.40306 69.03501 12953 ft 320 kts 343°
2026-04-21 17:08 41.42469 69.02698 13636 ft 324 kts 342°
2026-04-21 17:08 41.44644 69.01893 14250 ft 329 kts 342°
2026-04-21 17:08 41.46801 69.01098 14872 ft 332 kts 342°
2026-04-21 17:08 41.49031 69.00275 15551 ft 335 kts 342°
2026-04-21 17:09 41.53823 68.98495 15775 ft 376 kts 342°
2026-04-21 17:09 41.56350 68.97566 16413 ft 377 kts 342°
2026-04-21 17:09 41.58886 68.96627 16949 ft 383 kts 341°
2026-04-21 17:10 41.61453 68.95671 17516 ft 387 kts 341°
2026-04-21 17:10 41.64073 68.94696 18070 ft 393 kts 341°
2026-04-21 17:10 41.66709 68.93718 18606 ft 397 kts 341°
2026-04-21 17:10 41.69377 68.92727 19158 ft 400 kts 340°
2026-04-21 17:11 41.72064 68.91726 19790 ft 401 kts 340°
2026-04-21 17:11 41.74744 68.90727 20429 ft 402 kts 340°
2026-04-21 17:11 41.77441 68.89721 21050 ft 404 kts 339°
2026-04-21 17:11 41.80156 68.88707 21673 ft 406 kts 339°
2026-04-21 17:12 41.82876 68.87691 22322 ft 408 kts 338°
2026-04-21 17:12 41.85612 68.86667 22929 ft 411 kts 338°
2026-04-21 17:12 41.88379 68.85630 23505 ft 413 kts 338°
2026-04-21 17:12 41.91121 68.84608 24134 ft 412 kts 338°
2026-04-21 17:13 41.93894 68.83567 24605 ft 415 kts 337°
2026-04-21 17:13 41.96679 68.82549 25072 ft 419 kts 340°
2026-04-21 17:13 41.99595 68.82008 25519 ft 430 kts 350°
2026-04-21 17:13 42.02604 68.82019 26006 ft 436 kts 355°
2026-04-21 17:14 42.05646 68.82135 26470 ft 439 kts 356°
2026-04-21 17:14 42.08693 68.82220 26931 ft 441 kts 355°
2026-04-21 17:14 42.11757 68.82305 27410 ft 443 kts 356°
2026-04-21 17:14 42.14853 68.82411 27881 ft 446 kts 356°
2026-04-21 17:15 42.17954 68.82519 28323 ft 448 kts 356°
2026-04-21 17:15 42.21069 68.82616 28776 ft 451 kts 355°
2026-04-21 17:15 42.24218 68.82712 29236 ft 453 kts 356°
2026-04-21 17:15 42.27364 68.82815 29691 ft 455 kts 356°
2026-04-21 17:16 42.30535 68.82920 30094 ft 458 kts 356°
2026-04-21 17:16 42.33725 68.83022 30439 ft 460 kts 356°
2026-04-21 17:16 42.40249 68.83167 30500 ft 478 kts 353°
2026-04-21 17:17 42.46768 68.81459 30724 ft 479 kts 335°
2026-04-21 17:17 42.49843 68.79835 31178 ft 473 kts 332°
2026-04-21 17:17 42.52890 68.78208 31633 ft 471 kts 332°
2026-04-21 17:18 42.55928 68.76592 32054 ft 469 kts 332°
2026-04-21 17:18 42.58939 68.74970 32497 ft 467 kts 332°
2026-04-21 17:18 42.61955 68.73337 32955 ft 466 kts 331°
2026-04-21 17:18 42.64963 68.71718 33417 ft 465 kts 331°
2026-04-21 17:19 42.67954 68.70112 33894 ft 463 kts 331°
2026-04-21 17:19 42.70939 68.68501 34337 ft 461 kts 330°
2026-04-21 17:19 42.73898 68.66898 34805 ft 459 kts 330°
2026-04-21 17:19 42.76858 68.65297 35293 ft 457 kts 330°
2026-04-21 17:20 42.79800 68.63706 35780 ft 455 kts 330°
2026-04-21 17:20 42.82729 68.62119 36251 ft 454 kts 330°
2026-04-21 17:20 42.85659 68.60543 36761 ft 452 kts 330°
2026-04-21 17:20 42.88571 68.59000 37259 ft 450 kts 330°
2026-04-21 17:21 42.91479 68.57451 37760 ft 448 kts 329°
2026-04-21 17:21 42.94363 68.55897 38254 ft 446 kts 329°
2026-04-21 17:21 42.97227 68.54356 38706 ft 444 kts 330°
2026-04-21 17:21 43.00104 68.52814 39043 ft 444 kts 330°
2026-04-21 17:22 43.02020 68.51786 39256 ft 444 kts 330°
2026-04-21 17:22 43.05847 68.49726 39691 ft 445 kts 330°
2026-04-21 17:22 43.08721 68.48177 40035 ft 445 kts 330°
2026-04-21 17:22 43.11589 68.46631 40379 ft 445 kts 331°
2026-04-21 17:23 43.14465 68.45080 40719 ft 445 kts 331°
2026-04-21 17:23 43.17340 68.43526 41069 ft 446 kts 331°
2026-04-21 17:23 43.20217 68.41970 41409 ft 446 kts 332°
2026-04-21 17:23 43.23100 68.40409 41749 ft 446 kts 332°
2026-04-21 17:24 43.25976 68.38851 42096 ft 446 kts 332°
2026-04-21 17:24 43.28894 68.37351 42392 ft 450 kts 336°
2026-04-21 17:24 43.31814 68.36441 42677 ft 459 kts 346°
2026-04-21 17:24 43.34995 68.35998 43007 ft 461 kts 349°
2026-04-21 17:25 43.38181 68.35595 43371 ft 460 kts 349°
2026-04-21 17:25 43.41357 68.35157 43715 ft 460 kts 349°
2026-04-21 17:25 43.44533 68.34718 44069 ft 460 kts 349°
2026-04-21 17:25 43.47710 68.34299 44402 ft 460 kts 349°
2026-04-21 17:26 43.50891 68.33883 44655 ft 461 kts 349°
2026-04-21 17:26 43.54080 68.33452 44837 ft 463 kts 349°
2026-04-21 17:26 43.60583 68.32571 44837 ft 476 kts 349°
2026-04-21 17:27 43.67239 68.31682 44849 ft 488 kts 349°
2026-04-21 17:27 43.74065 68.30757 44859 ft 499 kts 349°
2026-04-21 17:28 43.81044 68.29818 44852 ft 510 kts 350°
2026-04-21 17:28 43.88132 68.28857 44845 ft 517 kts 350°
2026-04-21 17:29 43.95269 68.27892 44847 ft 514 kts 350°
2026-04-21 17:29 44.02359 68.26927 44823 ft 511 kts 350°
2026-04-21 17:30 44.09407 68.25963 44829 ft 510 kts 350°
2026-04-21 17:30 44.16516 68.25702 44809 ft 521 kts
2026-04-21 17:31 44.23691 68.27305 44813 ft 523 kts
2026-04-21 17:31 44.30866 68.28739 44803 ft 521 kts
2026-04-21 17:32 44.38018 68.30242 44802 ft 521 kts
2026-04-21 17:32 44.45163 68.31737 44798 ft 520 kts
2026-04-21 17:33 44.52327 68.33222 44788 ft 523 kts
2026-04-21 17:33 44.59496 68.34740 44790 ft 522 kts
2026-04-21 17:34 44.66666 68.36233 44789 ft 522 kts
2026-04-21 17:34 44.73836 68.37755 44783 ft 523 kts
2026-04-21 17:35 44.81020 68.39264 44785 ft 523 kts
2026-04-21 17:35 44.88195 68.40789 44785 ft 523 kts
2026-04-21 17:36 44.95368 68.42307 44776 ft 522 kts
2026-04-21 17:36 45.02546 68.43838 44782 ft 522 kts
2026-04-21 17:37 45.09721 68.45366 44785 ft 522 kts
2026-04-21 17:37 45.16889 68.46901 44791 ft 522 kts
2026-04-21 17:38 45.24068 68.48440 44789 ft 522 kts
2026-04-21 17:38 45.31239 68.49982 44793 ft 522 kts
2026-04-21 17:39 45.38415 68.51528 44788 ft 523 kts
2026-04-21 17:39 45.45593 68.53080 44787 ft 523 kts
2026-04-21 17:40 45.52765 68.54633 44794 ft 522 kts
2026-04-21 17:40 45.59938 68.56191 44792 ft 522 kts
2026-04-21 17:41 45.67102 68.57751 44795 ft 521 kts
2026-04-21 17:41 45.74266 68.59315 44795 ft 522 kts
2026-04-21 17:42 45.81433 68.60886 44794 ft 522 kts
2026-04-21 17:42 45.88600 68.62461 44798 ft 522 kts
2026-04-21 17:43 45.95746 68.64036 44794 ft 520 kts
2026-04-21 17:43 46.02896 68.65614 44792 ft 521 kts
2026-04-21 17:44 46.10049 68.67199 44797 ft 522 kts
2026-04-21 17:44 46.17198 68.68787 44797 ft 521 kts
2026-04-21 17:45 46.24361 68.70380 44793 ft 522 kts
2026-04-21 17:45 46.31521 68.71979 44797 ft 522 kts
2026-04-21 17:46 46.38670 68.73580 44802 ft 520 kts
2026-04-21 17:46 46.45790 68.75177 44793 ft 519 kts
2026-04-21 17:47 46.52914 68.76780 44799 ft 519 kts
2026-04-21 17:47 46.60045 68.78388 44800 ft 520 kts
2026-04-21 17:48 46.67179 68.80002 44805 ft 520 kts
2026-04-21 17:48 46.74306 68.81619 44801 ft 519 kts
2026-04-21 17:49 46.81427 68.83238 44795 ft 519 kts
2026-04-21 17:49 46.88540 68.84860 44828 ft 519 kts
2026-04-21 17:50 46.95677 68.86492 44804 ft 519 kts
2026-04-21 17:50 47.02790 68.88122 44800 ft 519 kts
2026-04-21 17:51 47.09912 68.89759 44797 ft 519 kts
2026-04-21 17:51 47.17037 68.91401 44804 ft 520 kts
2026-04-21 17:52 47.24151 68.93047 44802 ft 518 kts
2026-04-21 17:52 47.31258 68.94692 44802 ft 518 kts
2026-04-21 17:53 47.38356 68.96342 44808 ft 518 kts
2026-04-21 17:53 47.45474 68.98001 44810 ft 518 kts
2026-04-21 17:54 47.52578 68.99661 44812 ft 518 kts
2026-04-21 17:54 47.59687 69.01326 44810 ft 519 kts
2026-04-21 17:55 47.66808 69.03000 44814 ft 517 kts
2026-04-21 17:55 47.73889 69.04668 44819 ft 516 kts
2026-04-21 17:56 47.80967 69.06339 44844 ft 517 kts
2026-04-21 17:56 47.88070 69.08023 44828 ft 517 kts
2026-04-21 17:57 47.95156 69.09706 44825 ft 517 kts
2026-04-21 17:57 48.02247 69.11395 44831 ft 517 kts
2026-04-21 17:58 48.09345 69.13090 44833 ft 517 kts
2026-04-21 17:58 48.16412 69.14785 44836 ft 515 kts
2026-04-21 17:59 48.23463 69.16476 44836 ft 514 kts
2026-04-21 17:59 48.30524 69.18178 44838 ft 516 kts
2026-04-21 18:00 48.37603 69.19888 44841 ft 516 kts
2026-04-21 18:00 48.44682 69.21603 44846 ft 516 kts
2026-04-21 18:01 48.51750 69.23320 44847 ft 515 kts
2026-04-21 18:01 48.58826 69.25043 44848 ft 516 kts
2026-04-21 18:02 48.65897 69.26772 44857 ft 516 kts
2026-04-21 18:02 48.72967 69.28503 44856 ft 516 kts
2026-04-21 18:03 48.80038 69.30241 44854 ft 517 kts
2026-04-21 18:03 48.87125 69.31987 44860 ft 517 kts
2026-04-21 18:04 48.94216 69.33739 44863 ft 517 kts
2026-04-21 18:04 49.01296 69.35494 44890 ft 517 kts
2026-04-21 18:05 49.08406 69.37260 44875 ft 519 kts
2026-04-21 18:05 49.15517 69.39034 44876 ft 519 kts
2026-04-21 18:06 49.22509 69.41875 44858 ft 528 kts 18°
2026-04-21 18:06 49.28838 69.47719 44873 ft 540 kts 36°
2026-04-21 18:07 49.33944 69.56195 44876 ft 548 kts 53°
2026-04-21 18:07 49.37610 69.66482 44888 ft 552 kts 63°
2026-04-21 18:08 49.39220 69.71822 44416 ft 554 kts 63°
2026-04-21 18:08 49.40937 69.77085 43658 ft 553 kts 59°
2026-04-21 18:08 49.42829 69.81987 42961 ft 547 kts 56°
2026-04-21 18:08 49.44770 69.86629 42298 ft 541 kts 54°
2026-04-21 18:09 49.46704 69.91534 41631 ft 535 kts 58°
2026-04-21 18:09 49.48444 69.96509 41006 ft 524 kts 59°
2026-04-21 18:09 49.49587 69.99782 40596 ft 517 kts 58°
2026-04-21 18:09 49.51968 70.06040 39808 ft 503 kts 56°
2026-04-21 18:10 49.53781 70.10582 39249 ft 495 kts 54°
2026-04-21 18:10 49.55604 70.15021 38700 ft 489 kts 54°
2026-04-21 18:10 49.57428 70.19400 38073 ft 485 kts 53°
2026-04-21 18:10 49.59242 70.23730 37444 ft 483 kts 53°
2026-04-21 18:11 49.61065 70.28075 36844 ft 481 kts 53°
2026-04-21 18:11 49.62879 70.32399 36286 ft 481 kts 53°
2026-04-21 18:11 49.64696 70.36730 35751 ft 484 kts 53°
2026-04-21 18:11 49.66521 70.41084 35257 ft 485 kts 53°
2026-04-21 18:12 49.68377 70.45435 34768 ft 486 kts 51°
2026-04-21 18:12 49.70484 70.49336 34124 ft 451 kts 41°
2026-04-21 18:12 49.72739 70.52412 33197 ft 418 kts 32°
2026-04-21 18:12 49.75036 70.54935 32279 ft 397 kts 29°
2026-04-21 18:13 49.77256 70.57319 31393 ft 383 kts 31°
2026-04-21 18:13 49.79331 70.59920 29980 ft 386 kts 37°
2026-04-21 18:13 49.81296 70.62798 27990 ft 393 kts 40°
2026-04-21 18:13 49.83284 70.65715 25795 ft 396 kts 38°
2026-04-21 18:14 49.87503 70.71253 21006 ft 401 kts 37°
2026-04-21 18:14 49.89543 70.74061 19512 ft 379 kts 39°
2026-04-21 18:14 49.91455 70.76755 19462 ft 381 kts 38°
2026-04-21 18:15 49.93507 70.79529 19484 ft 401 kts 38°
2026-04-21 18:15 49.95641 70.82399 19507 ft 411 kts 38°
2026-04-21 18:15 49.97782 70.85345 19332 ft 415 kts 39°
2026-04-21 18:15 49.99935 70.88330 18963 ft 413 kts 39°
2026-04-21 18:16 50.02048 70.91229 18556 ft 408 kts 38°
2026-04-21 18:16 50.04189 70.94155 18131 ft 405 kts 38°
2026-04-21 18:16 50.06282 70.97033 17695 ft 400 kts 39°
2026-04-21 18:16 50.08353 70.99895 17292 ft 398 kts 39°
2026-04-21 18:17 50.10412 71.02736 16914 ft 397 kts 38°
2026-04-21 18:17 50.12472 71.05578 16533 ft 394 kts 38°
2026-04-21 18:17 50.14514 71.08401 16156 ft 393 kts 38°
2026-04-21 18:17 50.16548 71.11218 15776 ft 391 kts 38°
2026-04-21 18:18 50.18579 71.14033 15401 ft 390 kts 38°
2026-04-21 18:18 50.20604 71.16842 15027 ft 390 kts 38°
2026-04-21 18:18 50.22612 71.19634 14655 ft 385 kts 38°
2026-04-21 18:18 50.24612 71.22417 14282 ft 383 kts 38°
2026-04-21 18:19 50.26587 71.25165 13916 ft 382 kts 38°
2026-04-21 18:19 50.28563 71.27919 13549 ft 381 kts 38°
2026-04-21 18:19 50.30528 71.30662 13153 ft 377 kts 39°
2026-04-21 18:19 50.32473 71.33365 12782 ft 372 kts 38°
2026-04-21 18:20 50.34650 71.35452 12363 ft 365 kts 18°
2026-04-21 18:20 50.37060 71.36489 12071 ft 359 kts
2026-04-21 18:20 50.39497 71.37341 11747 ft 359 kts
2026-04-21 18:20 50.41913 71.38188 11482 ft 355 kts
2026-04-21 18:21 50.44322 71.39070 11195 ft 358 kts 10°
2026-04-21 18:21 50.46739 71.39958 10866 ft 354 kts 10°
2026-04-21 18:21 50.49115 71.40818 10530 ft 352 kts 10°
2026-04-21 18:21 50.51500 71.41675 10197 ft 351 kts 10°
2026-04-21 18:22 50.53871 71.42537 9867 ft 350 kts 10°
2026-04-21 18:22 50.56223 71.43395 9521 ft 346 kts 11°
2026-04-21 18:22 50.58531 71.44035 9147 ft 338 kts
2026-04-21 18:22 50.60629 71.43547 8850 ft 292 kts 343°
2026-04-21 18:23 50.62415 71.42213 8565 ft 281 kts 326°
2026-04-21 18:23 50.63857 71.40141 8307 ft 288 kts 310°
2026-04-21 18:23 50.65010 71.37722 8077 ft 274 kts 307°
2026-04-21 18:23 50.66166 71.35296 7824 ft 280 kts 307°
2026-04-21 18:24 50.67413 71.32976 7525 ft 276 kts 319°
2026-04-21 18:24 50.69053 71.31476 7285 ft 271 kts 333°
2026-04-21 18:24 50.70718 71.30146 7068 ft 266 kts 333°
2026-04-21 18:24 50.72349 71.28796 6832 ft 265 kts 332°
2026-04-21 18:25 50.73977 71.27451 6595 ft 264 kts 333°
2026-04-21 18:25 50.75597 71.26125 6352 ft 262 kts 333°
2026-04-21 18:25 50.77207 71.24806 6101 ft 261 kts 333°
2026-04-21 18:25 50.78815 71.23486 5863 ft 261 kts 333°
2026-04-21 18:26 50.80424 71.22163 5618 ft 262 kts 333°
2026-04-21 18:26 50.82039 71.20842 5384 ft 261 kts 334°
2026-04-21 18:26 50.83776 71.20163 5059 ft 260 kts
2026-04-21 18:26 50.85491 71.20889 4834 ft 256 kts 27°
2026-04-21 18:27 50.86843 71.22601 4654 ft 244 kts 44°
2026-04-21 18:27 50.87997 71.24475 4477 ft 233 kts 45°
2026-04-21 18:27 50.89112 71.26210 4244 ft 218 kts 43°
2026-04-21 18:27 50.90182 71.27851 4035 ft 212 kts 44°
2026-04-21 18:28 50.91199 71.29431 3850 ft 189 kts 44°
2026-04-21 18:28 50.92052 71.30760 3645 ft 158 kts 44°
2026-04-21 18:28 50.92781 71.31896 3450 ft 138 kts 44°
2026-04-21 18:28 50.93434 71.32908 3275 ft 128 kts 45°
2026-04-21 18:29 50.94059 71.33878 3122 ft 125 kts 45°
2026-04-21 18:29 50.94679 71.34843 2964 ft 126 kts 45°
2026-04-21 18:29 50.95310 71.35815 2799 ft 127 kts 45°
2026-04-21 18:29 50.95940 71.36798 2629 ft 127 kts 45°
2026-04-21 18:30 50.96570 71.37778 2461 ft 128 kts 45°
2026-04-21 18:30 50.97202 71.38762 2291 ft 129 kts 45°
2026-04-21 18:30 50.97844 71.39753 2115 ft 128 kts 45°
2026-04-21 18:30 50.98478 71.40741 1937 ft 128 kts 45°
2026-04-21 18:31 50.99104 71.41716 1765 ft 125 kts 45°
2026-04-21 18:31 50.99715 71.42669 1600 ft 123 kts 46°
2026-04-21 18:31 51.00319 71.43612 1440 ft 122 kts 46°
2026-04-21 18:31 51.00929 71.44551 1259 ft 124 kts 45°
2026-04-21 18:32 51.01527 71.45475 1166 ft 112 kts 45°
2026-04-21 18:32 51.02009 71.46231 1166 ft 83 kts 44°
2026-04-21 18:32 51.02393 71.46829 1166 ft 59 kts 45°
2026-04-21 18:32 51.02567 71.47104 1165 ft 30 kts 44°
2026-04-21 18:33 51.02662 71.47068 1165 ft 11 kts 316°
2026-04-21 18:33 51.02714 71.46987 1165 ft 10 kts 315°
2026-04-21 18:33 51.02763 71.46908 1166 ft 10 kts 314°
2026-04-21 18:33 51.02810 71.46835 1166 ft 9 kts 315°
2026-04-21 18:34 51.02855 71.46770 1166 ft 9 kts 335°
2026-04-21 18:34 51.02902 71.46794 1166 ft 7 kts 47°
2026-04-21 18:34 51.02930 71.46846 1166 ft 5 kts 76°
2026-04-21 18:34 51.02914 71.46885 1164 ft 4 kts 138°
2026-04-21 18:35 51.02903 71.46902 1166 ft 0 kts 135°